Time,TemperatureF,DewpointF,PressureIn,WindDirection,WindDirectionDegrees,WindSpeedMPH,WindSpeedGustMPH,Humidity,HourlyPrecipIn,Conditions,Clouds,dailyrainin,SoftwareType,DateUTC
2014-08-29 00:01:00,66.5,56.4,29.94,North,354,2.3,8.1,70,0.00,CLR,,0.00,WeatherDisplay:10.37,2014-08-29 04:01:00,
2014-08-29 00:06:00,66.5,56.4,29.94,NNE,15,3.1,8.1,70,0.00,CLR,,0.00,WeatherDisplay:10.37,2014-08-29 04:06:00,
2014-08-29 00:11:00,66.4,56.3,29.94,North,354,3.3,10.4,70,0.00,CLR,,0.00,WeatherDisplay:10.37,2014-08-29 04:11:00,
2014-08-29 00:16:00,66.3,56.2,29.94,NNW,342,2.9,4.6,70,0.00,CLR,,0.00,WeatherDisplay:10.37,2014-08-29 04:16:00,
2014-08-29 00:21:00,66.2,55.7,29.95,North,4,2.9,6.9,69,0.00,CLR,,0.00,WeatherDisplay:10.37,2014-08-29 04:21:00,
2014-08-29 00:26:00,66.1,56.0,29.95,WNW,299,3.1,3.5,70,0.00,CLR,,0.00,WeatherDisplay:10.37,2014-08-29 04:26:00,
2014-08-29 00:31:00,65.9,55.8,29.95,NW,314,3.6,9.2,70,0.00,CLR,,0.00,WeatherDisplay:10.37,2014-08-29 04:31:00,
2014-08-29 00:36:00,65.8,55.7,29.95,NNE,23,3.4,5.8,70,0.00,CLR,,0.00,WeatherDisplay:10.37,2014-08-29 04:36:00,
2014-08-29 00:41:00,65.7,55.6,29.95,NE,43,2.7,3.5,70,0.00,CLR,,0.00,WeatherDisplay:10.37,2014-08-29 04:41:00,
2014-08-29 00:46:00,65.6,55.9,29.96,NNW,330,1.5,3.5,71,0.00,CLR,,0.00,WeatherDisplay:10.37,2014-08-29 04:46:00,
2014-08-29 00:51:00,65.4,55.7,29.96,NW,309,3.0,4.0,71,0.00,CLR,,0.00,WeatherDisplay:10.37,2014-08-29 04:51:00,
2014-08-29 00:56:00,65.2,55.6,29.96,NE,37,2.8,3.5,71,0.00,CLR,,0.00,WeatherDisplay:10.37,2014-08-29 04:56:00,
2014-08-29 01:01:00,65.2,55.6,29.96,West,275,2.6,5.8,71,0.00,CLR,,0.00,WeatherDisplay:10.37,2014-08-29 05:01:00,
2014-08-29 01:06:00,65.2,55.6,29.96,NW,310,2.3,11.5,71,0.00,CLR,,0.00,WeatherDisplay:10.37,2014-08-29 05:06:00,
2014-08-29 01:11:00,65.3,55.7,29.97,NNE,29,3.9,8.1,71,0.00,CLR,,0.00,WeatherDisplay:10.37,2014-08-29 05:11:00,
2014-08-29 01:16:00,65.2,55.6,29.96,NW,323,3.8,8.1,71,0.00,CLR,,0.00,WeatherDisplay:10.37,2014-08-29 05:16:00,
2014-08-29 01:21:00,65.2,55.6,29.97,NW,324,2.6,3.5,71,0.00,CLR,,0.00,WeatherDisplay:10.37,2014-08-29 05:21:00,
2014-08-29 01:26:00,65.0,55.8,29.97,NW,326,3.2,9.2,72,0.00,CLR,,0.00,WeatherDisplay:10.37,2014-08-29 05:26:00,
2014-08-29 01:31:00,64.9,55.7,29.96,WSW,250,4.5,10.4,72,0.00,CLR,,0.00,WeatherDisplay:10.37,2014-08-29 05:31:00,
2014-08-29 01:36:00,64.9,55.7,29.97,NW,324,3.3,9.2,72,0.00,CLR,,0.00,WeatherDisplay:10.37,2014-08-29 05:36:00,
2014-08-29 01:41:00,64.8,55.6,29.97,NNW,328,3.4,9.2,72,0.00,CLR,,0.00,WeatherDisplay:10.37,2014-08-29 05:41:00,
2014-08-29 01:46:00,64.7,55.5,29.97,NW,308,3.1,3.5,72,0.00,CLR,,0.00,WeatherDisplay:10.37,2014-08-29 05:46:00,
2014-08-29 01:51:00,64.7,55.5,29.98,NNW,348,2.3,6.0,72,0.00,CLR,,0.00,WeatherDisplay:10.37,2014-08-29 05:51:00,
2014-08-29 01:56:00,64.5,55.3,29.98,NNW,335,3.4,9.2,72,0.00,CLR,,0.00,WeatherDisplay:10.37,2014-08-29 05:56:00,
2014-08-29 02:01:00,64.4,55.2,29.98,NW,308,1.7,8.1,72,0.00,CLR,,0.00,WeatherDisplay:10.37,2014-08-29 06:01:00,
2014-08-29 02:06:00,64.3,55.5,29.98,NNW,337,3.2,8.1,73,0.00,CLR,,0.00,WeatherDisplay:10.37,2014-08-29 06:06:00,
2014-08-29 02:11:00,64.3,55.8,29.98,NW,322,2.5,4.6,74,0.00,CLR,,0.00,WeatherDisplay:10.37,2014-08-29 06:11:00,
2014-08-29 02:16:00,64.2,55.7,29.98,NNW,328,1.8,5.8,74,0.00,CLR,,0.00,WeatherDisplay:10.37,2014-08-29 06:16:00,
2014-08-29 02:21:00,64.1,55.6,29.98,WNW,303,1.8,3.5,74,0.00,CLR,,0.00,WeatherDisplay:10.37,2014-08-29 06:21:00,
2014-08-29 02:26:00,64.0,55.9,29.98,NW,326,2.3,3.5,75,0.00,CLR,,0.00,WeatherDisplay:10.37,2014-08-29 06:26:00,
2014-08-29 02:31:00,63.8,55.7,29.98,North,354,2.7,3.5,75,0.00,CLR,,0.00,WeatherDisplay:10.37,2014-08-29 06:31:00,
2014-08-29 02:36:00,63.7,56.0,29.98,WNW,299,2.6,8.1,76,0.00,CLR,,0.00,WeatherDisplay:10.37,2014-08-29 06:36:00,
2014-08-29 02:41:00,63.6,55.5,29.98,NNW,341,1.8,3.5,75,0.00,CLR,,0.00,WeatherDisplay:10.37,2014-08-29 06:41:00,
2014-08-29 02:46:00,63.5,55.8,29.98,NNW,343,2.1,3.5,76,0.00,CLR,,0.00,WeatherDisplay:10.37,2014-08-29 06:46:00,
2014-08-29 02:51:00,63.5,55.8,29.98,NW,313,2.6,3.5,76,0.00,CLR,,0.00,WeatherDisplay:10.37,2014-08-29 06:51:00,
2014-08-29 02:56:00,63.4,55.7,29.98,NNE,32,1.3,3.5,76,0.00,CLR,,0.00,WeatherDisplay:10.37,2014-08-29 06:56:00,
2014-08-29 03:01:00,63.2,55.9,29.98,NW,318,2.4,8.1,77,0.00,CLR,,0.00,WeatherDisplay:10.37,2014-08-29 07:01:00,
2014-08-29 03:06:00,63.1,55.8,29.99,NNW,329,1.2,4.6,77,0.00,CLR,,0.00,WeatherDisplay:10.37,2014-08-29 07:06:00,
2014-08-29 03:11:00,62.9,55.9,29.99,NW,317,1.8,3.5,78,0.00,CLR,,0.00,WeatherDisplay:10.37,2014-08-29 07:11:00,
2014-08-29 03:16:00,62.8,55.8,29.99,NW,312,1.4,3.0,78,0.00,CLR,,0.00,WeatherDisplay:10.37,2014-08-29 07:16:00,
2014-08-29 03:21:00,62.7,55.7,29.99,NW,326,3.2,3.2,78,0.00,CLR,,0.00,WeatherDisplay:10.37,2014-08-29 07:21:00,
2014-08-29 03:26:00,62.7,56.1,29.99,NW,312,3.0,5.0,79,0.00,CLR,,0.00,WeatherDisplay:10.37,2014-08-29 07:26:00,
2014-08-29 03:31:00,62.6,56.0,29.99,WNW,298,1.2,3.5,79,0.00,CLR,,0.00,WeatherDisplay:10.37,2014-08-29 07:31:00,
2014-08-29 03:36:00,62.6,56.0,29.99,WNW,295,2.5,3.5,79,0.00,CLR,,0.00,WeatherDisplay:10.37,2014-08-29 07:36:00,
2014-08-29 03:41:00,62.5,55.9,29.99,WNW,291,1.8,4.0,79,0.00,CLR,,0.00,WeatherDisplay:10.37,2014-08-29 07:41:00,
2014-08-29 03:46:00,62.5,55.9,29.99,NNW,340,1.7,3.5,79,0.00,CLR,,0.00,WeatherDisplay:10.37,2014-08-29 07:46:00,
2014-08-29 03:51:00,62.4,55.8,30.00,NW,312,0.7,2.3,79,0.00,CLR,,0.00,WeatherDisplay:10.37,2014-08-29 07:51:00,
2014-08-29 03:56:00,62.3,56.0,30.00,WNW,289,1.5,4.6,80,0.00,CLR,,0.00,WeatherDisplay:10.37,2014-08-29 07:56:00,
2014-08-29 04:01:00,62.3,56.0,30.00,North,9,1.6,2.3,80,0.00,CLR,,0.00,WeatherDisplay:10.37,2014-08-29 08:01:00,
2014-08-29 04:06:00,62.2,56.0,30.00,NNW,343,1.7,3.5,80,0.00,CLR,,0.00,WeatherDisplay:10.37,2014-08-29 08:06:00,
2014-08-29 04:11:00,62.1,55.9,30.00,NNW,346,2.0,3.5,80,0.00,CLR,,0.00,WeatherDisplay:10.37,2014-08-29 08:11:00,
2014-08-29 04:16:00,62.0,56.1,30.00,NNW,335,2.4,2.4,81,0.00,CLR,,0.00,WeatherDisplay:10.37,2014-08-29 08:16:00,
2014-08-29 04:21:00,62.1,56.2,30.00,NNW,334,1.3,3.5,81,0.00,CLR,,0.00,WeatherDisplay:10.37,2014-08-29 08:21:00,
2014-08-29 04:26:00,62.0,56.1,30.00,NNW,330,1.8,3.5,81,0.00,CLR,,0.00,WeatherDisplay:10.37,2014-08-29 08:26:00,
2014-08-29 04:31:00,61.9,56.0,30.00,NNW,342,2.5,5.8,81,0.00,CLR,,0.00,WeatherDisplay:10.37,2014-08-29 08:31:00,
2014-08-29 04:36:00,61.8,55.9,30.00,NNW,336,2.1,3.5,81,0.00,CLR,,0.00,WeatherDisplay:10.37,2014-08-29 08:36:00,
2014-08-29 04:41:00,61.8,55.9,30.00,NW,316,2.5,4.6,81,0.00,CLR,,0.00,WeatherDisplay:10.37,2014-08-29 08:41:00,
2014-08-29 04:46:00,61.7,55.8,30.00,NNW,335,1.8,3.5,81,0.00,CLR,,0.00,WeatherDisplay:10.37,2014-08-29 08:46:00,
2014-08-29 04:51:00,61.6,56.0,30.01,NNW,345,1.1,3.5,82,0.00,CLR,,0.00,WeatherDisplay:10.37,2014-08-29 08:51:00,
2014-08-29 04:56:00,61.5,56.0,30.01,NW,314,0.8,2.3,82,0.00,CLR,,0.00,WeatherDisplay:10.37,2014-08-29 08:56:00,
2014-08-29 05:01:00,61.3,55.8,30.01,North,4,1.7,3.5,82,0.00,CLR,,0.00,WeatherDisplay:10.37,2014-08-29 09:01:00,
2014-08-29 05:06:00,61.2,55.7,30.01,NNW,332,2.4,4.6,82,0.00,CLR,,0.00,WeatherDisplay:10.37,2014-08-29 09:06:00,
2014-08-29 05:11:00,61.0,55.8,30.02,North,4,0.9,2.3,83,0.00,CLR,,0.00,WeatherDisplay:10.37,2014-08-29 09:11:00,
2014-08-29 05:16:00,60.9,55.7,30.02,NNW,333,1.7,3.5,83,0.00,CLR,,0.00,WeatherDisplay:10.37,2014-08-29 09:16:00,
2014-08-29 05:21:00,60.8,55.9,30.02,WNW,287,0.4,1.2,84,0.00,CLR,,0.00,WeatherDisplay:10.37,2014-08-29 09:21:00,
2014-08-29 05:26:00,60.8,55.9,30.02,North,350,0.8,3.5,84,0.00,CLR,,0.00,WeatherDisplay:10.37,2014-08-29 09:26:00,
2014-08-29 05:31:00,60.8,55.9,30.03,NW,324,1.8,3.5,84,0.00,CLR,,0.00,WeatherDisplay:10.37,2014-08-29 09:31:00,
2014-08-29 05:36:00,60.8,55.9,30.03,NNE,12,1.9,3.5,84,0.00,CLR,,0.00,WeatherDisplay:10.37,2014-08-29 09:36:00,
2014-08-29 05:41:00,60.8,55.9,30.03,NNE,14,3.2,6.9,84,0.00,CLR,,0.00,WeatherDisplay:10.37,2014-08-29 09:41:00,
2014-08-29 05:46:00,60.8,55.9,30.03,NNE,27,1.9,3.5,84,0.00,CLR,,0.00,WeatherDisplay:10.37,2014-08-29 09:46:00,
2014-08-29 05:51:00,60.9,55.7,30.03,NNW,330,1.3,3.5,83,0.00,CLR,,0.00,WeatherDisplay:10.37,2014-08-29 09:51:00,
2014-08-29 05:56:00,60.9,55.7,30.04,ENE,65,2.4,3.5,83,0.00,CLR,,0.00,WeatherDisplay:10.37,2014-08-29 09:56:00,
2014-08-29 06:01:00,61.0,55.8,30.04,NW,305,1.5,3.5,83,0.00,CLR,,0.00,WeatherDisplay:10.37,2014-08-29 10:01:00,
2014-08-29 06:06:00,61.1,55.9,30.04,NNW,340,2.0,6.0,83,0.00,CLR,,0.00,WeatherDisplay:10.37,2014-08-29 10:06:00,
2014-08-29 06:11:00,61.1,55.9,30.04,NW,324,2.4,4.6,83,0.00,CLR,,0.00,WeatherDisplay:10.37,2014-08-29 10:11:00,
2014-08-29 06:16:00,61.2,55.7,30.04,NNW,331,1.0,2.3,82,0.00,CLR,,0.00,WeatherDisplay:10.37,2014-08-29 10:16:00,
2014-08-29 06:21:00,61.3,55.8,30.04,NE,47,0.5,2.3,82,0.00,CLR,,0.00,WeatherDisplay:10.37,2014-08-29 10:21:00,
2014-08-29 06:26:00,61.4,55.9,30.05,NNW,327,2.1,4.6,82,0.00,CLR,,0.00,WeatherDisplay:10.37,2014-08-29 10:26:00,
2014-08-29 06:31:00,61.4,55.9,30.05,NW,312,1.7,4.0,82,0.00,CLR,,0.00,WeatherDisplay:10.37,2014-08-29 10:31:00,
2014-08-29 06:36:00,61.5,56.0,30.05,North,350,1.0,3.0,82,0.00,CLR,,0.00,WeatherDisplay:10.37,2014-08-29 10:36:00,
2014-08-29 06:41:00,61.5,56.0,30.06,NNW,345,1.3,3.5,82,0.00,CLR,,0.00,WeatherDisplay:10.37,2014-08-29 10:41:00,
2014-08-29 06:46:00,61.4,55.9,30.06,North,354,2.6,3.5,82,0.00,CLR,,0.00,WeatherDisplay:10.37,2014-08-29 10:46:00,
2014-08-29 06:51:00,61.6,56.4,30.06,NE,38,1.4,3.5,83,0.00,CLR,,0.00,WeatherDisplay:10.37,2014-08-29 10:51:00,
2014-08-29 06:56:00,61.8,56.6,30.06,NE,47,2.5,8.1,83,0.00,CLR,,0.00,WeatherDisplay:10.37,2014-08-29 10:56:00,
2014-08-29 07:01:00,62.2,56.6,30.07,North,359,2.3,3.5,82,0.00,CLR,,0.00,WeatherDisplay:10.37,2014-08-29 11:01:00,
2014-08-29 07:06:00,62.5,56.9,30.07,NE,41,2.2,4.6,82,0.00,CLR,,0.00,WeatherDisplay:10.37,2014-08-29 11:06:00,
2014-08-29 07:11:00,62.8,56.9,30.07,WNW,295,3.9,5.8,81,0.00,CLR,,0.00,WeatherDisplay:10.37,2014-08-29 11:11:00,
2014-08-29 07:16:00,63.1,57.2,30.07,NNE,12,2.7,5.8,81,0.00,CLR,,0.00,WeatherDisplay:10.37,2014-08-29 11:16:00,
2014-08-29 07:21:00,63.6,57.7,30.08,North,359,3.1,5.0,81,0.00,CLR,,0.00,WeatherDisplay:10.37,2014-08-29 11:21:00,
2014-08-29 07:26:00,64.2,57.9,30.08,North,8,4.8,8.1,80,0.00,CLR,,0.00,WeatherDisplay:10.37,2014-08-29 11:26:00,
2014-08-29 07:31:00,64.5,57.8,30.08,NW,315,1.7,6.0,79,0.00,CLR,,0.00,WeatherDisplay:10.37,2014-08-29 11:31:00,
2014-08-29 07:36:00,64.8,57.8,30.08,ENE,70,3.6,8.1,78,0.00,CLR,,0.00,WeatherDisplay:10.37,2014-08-29 11:36:00,
2014-08-29 07:41:00,64.9,57.9,30.08,NNW,330,5.9,10.4,78,0.00,CLR,,0.00,WeatherDisplay:10.37,2014-08-29 11:41:00,
2014-08-29 07:46:00,65.1,58.1,30.08,North,354,5.0,8.0,78,0.00,CLR,,0.00,WeatherDisplay:10.37,2014-08-29 11:46:00,
2014-08-29 07:51:00,65.3,58.3,30.08,NW,321,2.1,3.5,78,0.00,CLR,,0.00,WeatherDisplay:10.37,2014-08-29 11:51:00,
2014-08-29 07:56:00,65.5,58.5,30.09,NW,326,3.1,4.6,78,0.00,CLR,,0.00,WeatherDisplay:10.37,2014-08-29 11:56:00,
2014-08-29 08:01:00,65.9,58.1,30.08,NE,42,4.6,11.5,76,0.00,CLR,,0.00,WeatherDisplay:10.37,2014-08-29 12:01:00,
2014-08-29 08:06:00,66.4,58.2,30.09,North,354,7.8,13.8,75,0.00,CLR,,0.00,WeatherDisplay:10.37,2014-08-29 12:06:00,
2014-08-29 08:11:00,66.8,57.9,30.09,NNE,17,7.6,11.5,73,0.00,CLR,,0.00,WeatherDisplay:10.37,2014-08-29 12:11:00,
2014-08-29 08:16:00,67.1,57.4,30.09,NE,39,10.2,13.0,71,0.00,CLR,,0.00,WeatherDisplay:10.37,2014-08-29 12:16:00,
2014-08-29 08:21:00,67.3,57.6,30.09,NE,40,3.3,11.5,71,0.00,CLR,,0.00,WeatherDisplay:10.37,2014-08-29 12:21:00,
2014-08-29 08:26:00,67.6,57.9,30.09,NW,304,3.4,5.0,71,0.00,CLR,,0.00,WeatherDisplay:10.37,2014-08-29 12:26:00,
2014-08-29 08:31:00,68.0,58.2,30.10,ENE,64,2.7,6.0,71,0.00,CLR,,0.00,WeatherDisplay:10.37,2014-08-29 12:31:00,
2014-08-29 08:36:00,68.3,58.1,30.10,NNE,31,4.4,8.1,70,0.00,CLR,,0.00,WeatherDisplay:10.37,2014-08-29 12:36:00,
2014-08-29 08:41:00,68.1,57.5,30.10,NNE,17,3.6,9.2,69,0.00,CLR,,0.00,WeatherDisplay:10.37,2014-08-29 12:41:00,
2014-08-29 08:46:00,68.3,57.7,30.10,ESE,113,1.0,2.3,69,0.00,CLR,,0.00,WeatherDisplay:10.37,2014-08-29 12:46:00,
2014-08-29 08:51:00,68.7,58.1,30.10,North,4,3.6,8.1,69,0.00,CLR,,0.00,WeatherDisplay:10.37,2014-08-29 12:51:00,
2014-08-29 08:56:00,68.9,57.9,30.11,North,354,6.8,12.7,68,0.00,CLR,,0.00,WeatherDisplay:10.37,2014-08-29 12:56:00,
2014-08-29 09:01:00,69.3,58.3,30.11,NW,314,7.3,13.8,68,0.00,CLR,,0.00,WeatherDisplay:10.37,2014-08-29 13:01:00,
2014-08-29 09:06:00,69.7,57.8,30.11,NNE,31,6.5,13.8,66,0.00,CLR,,0.00,WeatherDisplay:10.37,2014-08-29 13:06:00,
2014-08-29 09:11:00,70.2,57.9,30.11,West,278,6.7,11.5,65,0.00,CLR,,0.00,WeatherDisplay:10.37,2014-08-29 13:11:00,
2014-08-29 09:16:00,70.5,57.7,30.11,SE,129,2.8,9.2,64,0.00,CLR,,0.00,WeatherDisplay:10.37,2014-08-29 13:16:00,
2014-08-29 09:21:00,70.1,57.4,30.12,NNE,23,8.9,12.7,64,0.00,CLR,,0.00,WeatherDisplay:10.37,2014-08-29 13:21:00,
2014-08-29 09:26:00,69.7,57.4,30.12,NE,52,5.3,11.5,65,0.00,CLR,,0.00,WeatherDisplay:10.37,2014-08-29 13:26:00,
2014-08-29 09:31:00,69.1,57.3,30.12,NW,325,9.8,16.1,66,0.00,CLR,,0.00,WeatherDisplay:10.37,2014-08-29 13:31:00,
2014-08-29 09:36:00,68.7,57.7,30.12,NNW,346,4.2,6.9,68,0.00,CLR,,0.00,WeatherDisplay:10.37,2014-08-29 13:36:00,
2014-08-29 09:41:00,69.5,58.9,30.12,NE,50,4.0,9.0,69,0.00,CLR,,0.00,WeatherDisplay:10.37,2014-08-29 13:41:00,
2014-08-29 09:46:00,70.3,58.0,30.13,NNW,346,4.6,6.9,65,0.00,CLR,,0.00,WeatherDisplay:10.37,2014-08-29 13:46:00,
2014-08-29 09:51:00,70.7,58.4,30.13,North,4,4.8,9.2,65,0.00,CLR,,0.00,WeatherDisplay:10.37,2014-08-29 13:51:00,